Total_Precipitation_Accumulation
0.01 0.02 0.03 0.23 0.47 1.43 3.61 2.54 3.65 1.91 1.87 1.41 1.60 1.37 2.34 1.19 0.78 1.34 1.48 1.13 0.89 0.43 0.68 0.48 0.27 0.17 1.46 0.59 0.34 0.23 0.11 0.46 0.16 1.45 0.93 0.36 0.18 0.15 0.21 0.27 0.27 0.29 0.37 0.36 0.53 0.74 0.96 0.49 0.43 0.67 0.66 0.38 0.35 0.41 0.44 0.17 0.05 0.04 0.04 0.03 0.03 0.01 0.01 0.01 0.01 0.01 0.02 0.02 0.01 0.01 0.03 0.04 0.05 0.07 0.06 0.02 0.02 0.05 0.06 0.05 0.07 0.10 0.11 0.07 0.08 0.13 0.20 0.22 0.14 0.12 0.17 0.20 0.23 0.23 0.22 0.17 0.18
0.26 0.05 0.05 0.34 0.64 2.45 2.09 1.16 1.28 1.61 1.23 1.29 1.46 1.55 1.51 1.16 1.39 0.89 1.03 1.97 0.69 0.38 0.15 0.19 0.27 0.46 0.29 0.06 0.07 0.07 0.09 0.12 0.27 0.14 0.20 0.15 0.25 0.18 0.15 0.18 0.21 0.21 0.22 0.25 0.44 0.42 0.42 0.63 0.56 0.47 0.56 0.53 0.24 0.45 0.50 0.11 0.06 0.03 0.05 0.04 0.01 0.01 0.01 0.01 0.02 0.01 0.02 0.01 0.01 0.01 0.03 0.04 0.05 0.04 0.03 0.03 0.04 0.05 0.04 0.07 0.07 0.04 0.10 0.09 0.12 0.13 0.13 0.15 0.14 0.19 0.19 0.21 0.21 0.19 0.21 0.16 0.19
0.08 0.09 0.28 0.30 0.89 0.89 1.43 1.23 1.87 1.39 1.66 1.48 1.13 1.70 1.39 1.22 1.00 0.98 1.45 1.55 0.59 0.18 0.20 0.56 0.50 0.28 0.17 0.43 0.21 0.11 0.21 0.14 0.12 0.07 0.19 0.20 0.39 0.57 0.16 0.12 0.13 0.12 0.13 0.23 0.33 0.35 0.39 0.59 0.27 0.38 0.47 0.28 0.13 0.16 0.12 0.09 0.07 0.08 0.03 0.01 0.01 0.02 0.02 0.04 0.02 0.05 0.02 0.06 0.04 0.03 0.04 0.04 0.05 0.04 0.04 0.04 0.06 0.07 0.05 0.09 0.08 0.13 0.10 0.12 0.10 0.19 0.13 0.06 0.17 0.17 0.17 0.34 0.24 0.27 0.20 0.14 0.05
0.14 0.12 0.54 0.37 2.20 0.79 1.87 1.59 0.95 1.34 1.68 0.91 1.06 0.96 1.21 0.76 0.98 0.96 0.75 0.52 0.48 0.47 0.43 0.26 1.06 0.27 0.55 0.23 0.11 0.05 0.15 0.20 0.07 0.02 0.35 0.24 0.14 0.21 0.15 0.10 0.11 0.12 0.13 0.24 0.30 0.30 0.19 0.19 0.11 0.20 0.25 0.15 0.12 0.19 0.13 0.10 0.04 0.04 0.02 0.02 0.02 0.02 0.02 0.07 0.07 0.07 0.05 0.03 0.02 0.05 0.04 0.03 0.08 0.07 0.09 0.06 0.05 0.04 0.05 0.04 0.08 0.09 0.14 0.12 0.13 0.10 0.13 0.12 0.11 0.18 0.23 0.27 0.26 0.18 0.18 0.22 0.10
0.10 0.09 0.39 0.95 1.22 2.00 1.02 1.25 1.16 1.08 1.56 1.06 1.75 0.83 1.13 1.19 0.92 0.76 0.81 0.58 0.55 0.27 0.44 0.38 0.44 0.59 0.60 0.56 0.22 0.26 0.23 0.06 0.07 0.03 0.08 0.11 0.08 0.16 0.17 0.10 0.12 0.08 0.12 0.17 0.16 0.17 0.19 0.10 0.14 0.18 0.13 0.12 0.08 0.14 0.09 0.06 0.05 0.03 0.02 0.02 0.02 0.02 0.04 0.08 0.06 0.06 0.03 0.05 0.03 0.06 0.10 0.09 0.13 0.11 0.13 0.10 0.06 0.06 0.06 0.09 0.09 0.12 0.10 0.15 0.14 0.12 0.13 0.16 0.12 0.14 0.17 0.19 0.29 0.23 0.15 0.12 0.11
0.30 0.20 0.33 1.12 3.17 1.52 1.14 1.07 1.26 1.14 1.12 0.65 1.52 1.58 1.22 1.26 1.15 0.81 0.71 0.90 0.50 0.58 0.41 0.71 0.30 0.18 0.19 0.14 0.03 0.11 0.08 0.21 0.11 0.10 0.04 0.12 0.10 0.06 0.10 0.05 0.11 0.08 0.11 0.13 0.13 0.09 0.22 0.12 0.17 0.10 0.08 0.07 0.04 0.05 0.05 0.04 0.03 0.02 0.04 0.05 0.07 0.05 0.09 0.08 0.10 0.06 0.07 0.05 0.12 0.13 0.19 0.17 0.16 0.16 0.11 0.10 0.10 0.11 0.09 0.10 0.09 0.10 0.12 0.12 0.12 0.10 0.13 0.16 0.18 0.15 0.10 0.10 0.26 0.18 0.21 0.25 0.16
0.40 0.35 1.00 0.79 1.34 0.88 1.69 1.15 0.74 0.96 1.14 1.00 1.57 1.27 1.62 1.62 1.59 1.05 0.79 0.51 0.46 0.47 0.21 0.21 0.05 0.06 0.15 0.13 0.05 0.08 0.04 0.03 0.10 0.05 0.02 0.07 0.05 0.03 0.07 0.11 0.14 0.13 0.15 0.16 0.12 0.14 0.14 0.09 0.09 0.14 0.07 0.07 0.05 0.06 0.05 0.05 0.09 0.03 0.06 0.03 0.03 0.03 0.07 0.07 0.05 0.05 0.22 0.13 0.11 0.09 0.22 0.11 0.16 0.11 0.15 0.14 0.09 0.14 0.11 0.15 0.16 0.19 0.12 0.12 0.11 0.11 0.12 0.09 0.13 0.10 0.09 0.14 0.14 0.21 0.31 0.20 0.24
0.31 1.43 1.16 1.21 2.08 1.16 1.12 0.62 0.80 0.38 1.03 0.72 1.05 1.37 1.75 0.86 0.66 1.26 0.66 0.81 0.37 0.47 0.44 0.13 0.31 0.66 0.56 0.05 0.45 0.19 0.07 0.06 0.06 0.03 0.02 0.03 0.05 0.06 0.09 0.11 0.10 0.16 0.17 0.10 0.13 0.11 0.22 0.07 0.05 0.08 0.05 0.04 0.03 0.05 0.03 0.04 0.05 0.06 0.10 0.08 0.13 0.07 0.07 0.07 0.11 0.09 0.07 0.12 0.11 0.14 0.11 0.11 0.10 0.13 0.17 0.16 0.16 0.15 0.22 0.17 0.19 0.14 0.12 0.10 0.10 0.11 0.14 0.06 0.07 0.27 0.18 0.18 0.25 0.22 0.28 0.23 0.31
0.84 0.90 1.27 1.32 1.37 0.87 0.62 0.90 0.83 0.50 0.81 0.89 1.40 1.54 1.34 1.35 0.83 1.05 0.76 1.02 0.82 0.35 0.32 0.14 0.20 0.50 0.30 0.23 0.27 0.17 0.11 0.04 0.04 0.02 0.04 0.06 0.05 0.07 0.09 0.11 0.07 0.12 0.11 0.12 0.12 0.10 0.10 0.07 0.06 0.08 0.04 0.02 0.03 0.04 0.05 0.04 0.05 0.07 0.06 0.03 0.04 0.11 0.10 0.09 0.10 0.10 0.07 0.10 0.10 0.10 0.18 0.11 0.15 0.16 0.13 0.13 0.14 0.12 0.12 0.17 0.14 0.18 0.13 0.12 0.10 0.11 0.15 0.17 0.20 0.24 0.28 0.22 0.21 0.21 0.24 0.26 0.32
1.10 0.74 1.94 1.14 0.79 1.05 0.54 0.62 0.83 1.09 1.43 0.89 1.38 1.22 1.08 1.18 1.01 0.86 0.48 0.59 0.70 0.41 0.31 0.13 0.09 0.62 0.27 0.33 0.18 0.17 0.15 0.05 0.03 0.05 0.04 0.04 0.03 0.06 0.08 0.10 0.07 0.08 0.11 0.12 0.10 0.06 0.05 0.15 0.07 0.05 0.03 0.03 0.03 0.04 0.04 0.03 0.04 0.10 0.04 0.03 0.06 0.08 0.14 0.08 0.11 0.10 0.07 0.09 0.13 0.14 0.14 0.11 0.11 0.12 0.08 0.08 0.12 0.12 0.10 0.10 0.13 0.11 0.15 0.07 0.07 0.10 0.10 0.15 0.48 0.31 0.35 0.28 0.26 0.27 0.12 0.21 0.29
1.40 0.62 0.85 1.05 1.05 1.13 0.84 0.91 0.52 0.58 0.81 1.06 1.04 1.43 1.43 1.15 0.74 1.15 0.66 0.97 0.27 0.29 0.12 0.08 0.18 0.26 0.19 0.32 0.36 0.21 0.06 0.03 0.03 0.07 0.05 0.03 0.06 0.11 0.10 0.11 0.08 0.08 0.11 0.09 0.04 0.05 0.07 0.09 0.14 0.05 0.07 0.02 0.01 0.03 0.09 0.04 0.06 0.09 0.03 0.04 0.04 0.08 0.08 0.06 0.15 0.07 0.13 0.08 0.10 0.08 0.08 0.07 0.10 0.10 0.05 0.08 0.08 0.06 0.09 0.08 0.11 0.12 0.07 0.08 0.04 0.08 0.09 0.12 0.12 0.20 0.25 0.30 0.23 0.21 0.20 0.22 0.21
1.39 1.20 1.00 1.11 1.11 0.81 0.82 0.96 0.48 0.79 0.98 0.87 1.48 1.32 1.19 0.74 0.66 0.62 0.74 0.44 0.36 0.31 0.15 0.08 0.30 0.14 0.20 0.13 0.26 0.28 0.09 0.04 0.06 0.03 0.06 0.06 0.10 0.05 0.05 0.11 0.06 0.07 0.05 0.06 0.04 0.08 0.04 0.10 0.14 0.20 0.07 0.03 0.04 0.07 0.03 0.09 0.07 0.07 0.04 0.06 0.04 0.08 0.06 0.06 0.08 0.10 0.07 0.05 0.06 0.06 0.05 0.06 0.07 0.08 0.07 0.07 0.09 0.10 0.09 0.11 0.09 0.10 0.06 0.06 0.06 0.05 0.10 0.15 0.19 0.24 0.20 0.19 0.13 0.13 0.27 0.20 0.24
0.87 0.79 1.23 0.54 0.98 0.62 0.55 0.90 1.14 1.02 0.53 1.11 1.50 1.19 1.26 0.92 0.94 1.20 0.66 1.05 0.49 0.43 0.23 0.32 0.07 0.14 0.40 0.32 0.26 0.16 0.13 0.06 0.04 0.03 0.05 0.05 0.06 0.04 0.04 0.04 0.07 0.09 0.04 0.03 0.04 0.03 0.06 0.05 0.06 0.10 0.12 0.05 0.09 0.03 0.07 0.07 0.05 0.03 0.03 0.03 0.04 0.05 0.05 0.11 0.08 0.08 0.07 0.08 0.08 0.03 0.04 0.03 0.02 0.04 0.05 0.04 0.08 0.09 0.09 0.17 0.12 0.12 0.11 0.09 0.06 0.09 0.07 0.18 0.23 0.24 0.23 0.21 0.07 0.15 0.14 0.13 0.22
0.23 0.40 1.01 1.17 0.27 0.61 0.84 0.49 0.53 0.95 0.85 0.42 0.75 1.03 1.36 1.09 0.75 1.18 1.24 0.52 0.69 0.76 0.20 0.18 0.10 0.13 0.19 0.13 0.53 0.22 0.12 0.07 0.06 0.07 0.03 0.05 0.05 0.07 0.05 0.06 0.10 0.06 0.03 0.02 0.04 0.06 0.08 0.08 0.10 0.05 0.07 0.10 0.28 0.10 0.04 0.04 0.02 0.04 0.02 0.03 0.04 0.03 0.05 0.05 0.04 0.07 0.07 0.06 0.02 0.03 0.02 0.02 0.02 0.04 0.06 0.09 0.04 0.06 0.07 0.12 0.08 0.14 0.06 0.05 0.04 0.08 0.07 0.11 0.16 0.18 0.16 0.11 0.08 0.08 0.11 0.13 0.11
0.57 0.27 0.27 0.27 0.48 0.17 0.36 0.89 0.41 0.45 1.31 0.91 0.68 1.01 0.94 1.18 1.08 0.82 1.32 1.06 0.75 0.75 0.22 0.05 0.10 0.10 0.21 0.04 0.20 0.08 0.09 0.09 0.04 0.04 0.06 0.04 0.04 0.05 0.04 0.06 0.08 0.07 0.06 0.05 0.05 0.06 0.06 0.05 0.05 0.08 0.05 0.05 0.07 0.09 0.21 0.07 0.06 0.05 0.03 0.04 0.03 0.07 0.06 0.03 0.02 0.03 0.02 0.02 0.01 0.02 0.02 0.02 0.03 0.03 0.06 0.03 0.02 0.04 0.06 0.03 0.03 0.03 0.07 0.12 0.04 0.08 0.16 0.17 0.22 0.18 0.09 0.05 0.06 0.06 0.07 0.14 0.11
0.06 0.04 0.42 0.57 0.94 1.13 0.26 0.31 0.07 0.19 0.77 1.40 0.80 1.15 1.06 1.01 1.27 0.88 0.91 1.54 0.54 0.22 0.26 0.27 0.05 0.26 0.10 0.08 0.03 0.03 0.04 0.03 0.04 0.04 0.06 0.10 0.07 0.07 0.07 0.08 0.09 0.08 0.07 0.07 0.09 0.04 0.04 0.05 0.05 0.08 0.04 0.05 0.04 0.07 0.13 0.06 0.07 0.05 0.09 0.06 0.11 0.09 0.02 0.04 0.01 0.02 0.03 0.03 0.01 0.01 0.03 0.03 0.06 0.04 0.06 0.04 0.02 0.05 0.02 0.06 0.05 0.05 0.04 0.04 0.08 0.06 0.07 0.08 0.06 0.04 0.03 0.04 0.03 0.05 0.07 0.10 0.19
0.02 0.12 0.39 0.60 1.02 0.62 0.35 0.37 0.19 0.87 0.45 0.61 1.46 1.10 1.05 0.98 0.94 1.69 0.97 0.98 0.79 0.35 0.61 0.42 0.38 0.08 0.03 0.07 0.06 0.06 0.02 0.01 0.03 0.05 0.08 0.17 0.17 0.16 0.14 0.16 0.12 0.13 0.12 0.08 0.07 0.04 0.04 0.05 0.04 0.07 0.04 0.03 0.02 0.12 0.07 0.05 0.09 0.07 0.09 0.17 0.11 0.03 0.04 0.03 0.01 0.01 0.02 0.06 0.03 0.02 0.07 0.12 0.07 0.05 0.10 0.08 0.04 0.05 0.01 0.02 0.02 0.05 0.03 0.04 0.04 0.04 0.08 0.07 0.04 0.03 0.02 0.01 0.02 0.03 0.05 0.09 0.06
0.08 0.34 0.22 0.37 0.99 0.73 0.35 0.56 0.13 0.15 0.74 0.36 0.76 1.26 1.18 0.89 0.67 0.87 0.93 0.98 1.06 0.53 0.43 0.33 0.22 0.05 0.04 0.04 0.04 0.02 0.02 0.02 0.05 0.06 0.11 0.13 0.15 0.17 0.23 0.21 0.13 0.12 0.12 0.11 0.06 0.05 0.07 0.04 0.04 0.07 0.06 0.03 0.05 0.06 0.07 0.05 0.07 0.11 0.07 0.07 0.11 0.06 0.03 0.03 0.10 0.06 0.11 0.06 0.05 0.04 0.14 0.27 0.12 0.18 0.21 0.12 0.21 0.11 0.08 0.05 0.06 0.06 0.05 0.06 0.07 0.04 0.05 0.03 0.03 0.03 0.04 0.03 0.03 0.06 0.03 0.30 0.18
0.05 0.07 0.09 0.40 0.29 0.59 0.17 0.27 0.40 0.34 0.70 0.26 0.34 0.43 0.87 0.74 0.81 1.00 1.01 0.59 0.41 0.37 0.39 0.37 0.10 0.04 0.05 0.02 0.01 0.02 0.02 0.04 0.06 0.03 0.04 0.06 0.09 0.05 0.09 0.11 0.11 0.10 0.16 0.08 0.07 0.03 0.05 0.03 0.03 0.04 0.06 0.04 0.10 0.05 0.04 0.03 0.05 0.05 0.03 0.04 0.12 0.06 0.11 0.05 0.16 0.12 0.11 0.06 0.09 0.16 0.20 0.14 0.11 0.15 0.28 0.14 0.17 0.04 0.03 0.04 0.07 0.04 0.05 0.05 0.02 0.02 0.03 0.02 0.05 0.04 0.03 0.05 0.07 0.03 0.22 0.19 0.14
0.00 0.08 0.11 0.81 0.26 0.50 0.18 0.02 0.34 0.06 0.18 0.57 0.54 0.40 0.56 0.75 1.04 0.66 1.03 0.69 0.28 0.24 0.18 0.12 0.05 0.04 0.03 0.05 0.02 0.03 0.04 0.03 0.03 0.02 0.03 0.06 0.04 0.04 0.06 0.07 0.06 0.04 0.05 0.05 0.04 0.03 0.06 0.04 0.04 0.02 0.05 0.05 0.06 0.10 0.07 0.03 0.05 0.08 0.09 0.08 0.08 0.07 0.07 0.11 0.17 0.09 0.06 0.09 0.12 0.23 0.13 0.09 0.09 0.22 0.06 0.06 0.09 0.14 0.20 0.02 0.04 0.03 0.02 0.03 0.03 0.11 0.07 0.05 0.04 0.04 0.03 0.04 0.08 0.18 0.27 0.23 0.13
0.00 0.00 0.08 0.51 0.35 0.45 0.41 0.20 0.03 0.13 0.14 0.45 0.39 0.45 0.69 0.83 0.70 0.78 0.59 0.32 0.51 0.43 0.06 0.04 0.02 0.01 0.01 0.01 0.04 0.02 0.03 0.03 0.04 0.02 0.08 0.04 0.04 0.03 0.02 0.03 0.02 0.04 0.05 0.03 0.03 0.02 0.03 0.02 0.03 0.04 0.05 0.06 0.05 0.08 0.02 0.04 0.02 0.05 0.06 0.06 0.05 0.10 0.05 0.06 0.07 0.07 0.09 0.13 0.04 0.22 0.14 0.07 0.08 0.06 0.05 0.20 0.37 0.34 0.47 0.35 0.37 0.39 0.40 0.39 0.18 0.25 0.33 0.26 0.38 0.26 0.20 0.17 0.11 0.15 0.07 0.16 0.12
0.00 0.01 0.10 0.01 0.27 0.10 0.16 0.22 0.01 0.10 0.02 0.46 0.51 0.49 0.73 0.51 0.46 0.85 0.98 0.60 0.46 0.26 0.13 0.05 0.01 0.00 0.02 0.02 0.03 0.01 0.02 0.01 0.01 0.02 0.05 0.05 0.02 0.03 0.02 0.03 0.04 0.02 0.04 0.05 0.02 0.03 0.02 0.02 0.01 0.02 0.03 0.04 0.06 0.04 0.04 0.05 0.04 0.03 0.03 0.06 0.07 0.06 0.04 0.05 0.03 0.07 0.06 0.08 0.14 0.04 0.04 0.02 0.06 0.07 0.11 0.14 0.30 0.24 0.43 0.49 0.38 0.34 0.25 0.41 0.26 0.58 0.31 0.31 0.63 0.17 0.21 0.26 0.17 0.13 0.16 0.08 0.04
0.00 0.02 0.00 0.02 0.15 0.19 0.35 0.15 0.02 0.00 0.27 0.16 0.25 0.13 0.18 0.41 0.85 0.61 0.63 1.06 1.26 0.43 0.04 0.02 0.02 0.00 0.01 0.03 0.01 0.01 0.01 0.01 0.01 0.01 0.02 0.06 0.01 0.01 0.01 0.01 0.02 0.06 0.05 0.04 0.01 0.03 0.03 0.05 0.03 0.02 0.03 0.04 0.07 0.06 0.05 0.03 0.05 0.03 0.05 0.04 0.06 0.05 0.04 0.04 0.05 0.06 0.11 0.05 0.06 0.04 0.05 0.02 0.02 0.08 0.05 0.07 0.22 0.36 0.78 0.40 0.59 0.72 0.71 0.70 0.34 0.50 0.18 0.33 0.40 0.17 0.12 0.25 0.12 0.16 0.07 0.04 0.04
0.00 0.00 0.00 0.01 0.02 0.09 0.03 0.08 0.00 0.01 0.01 0.23 0.17 0.01 0.44 0.23 0.59 0.30 0.48 0.69 0.55 0.44 0.31 0.04 0.06 0.01 0.00 0.01 0.00 0.01 0.00 0.00 0.01 0.01 0.01 0.02 0.00 0.00 0.01 0.01 0.02 0.01 0.01 0.04 0.04 0.02 0.02 0.03 0.02 0.04 0.02 0.05 0.05 0.07 0.04 0.04 0.04 0.03 0.03 0.03 0.05 0.02 0.02 0.05 0.03 0.05 0.04 0.03 0.02 0.02 0.01 0.07 0.12 0.01 0.05 0.05 0.04 0.29 0.34 0.41 0.12 0.46 0.39 0.17 0.12 0.13 0.24 0.35 0.13 0.21 0.34 0.18 0.19 0.12 0.04 0.03 0.11
0.00 0.00 0.00 0.01 0.00 0.04 0.01 0.00 0.00 0.00 0.00 0.00 0.02 0.06 0.49 0.53 0.41 0.33 0.51 0.42 0.30 0.44 0.57 0.17 0.02 0.00 0.01 0.00 0.00 0.01 0.01 0.02 0.04 0.02 0.02 0.01 0.02 0.01 0.01 0.01 0.01 0.01 0.02 0.02 0.02 0.04 0.02 0.02 0.05 0.03 0.03 0.03 0.06 0.04 0.03 0.06 0.03 0.02 0.03 0.06 0.07 0.03 0.03 0.04 0.01 0.03 0.03 0.02 0.02 0.03 0.01 0.01 0.01 0.02 0.03 0.04 0.21 0.23 0.09 0.24 0.40 0.29 0.10 0.24 0.10 0.23 0.07 0.17 0.20 0.23 0.27 0.35 0.09 0.21 0.05 0.12 0.02
0.00 0.00 0.00 0.00 0.00 0.00 0.01 0.00 0.00 0.00 0.02 0.01 0.03 0.31 0.07 0.13 0.13 0.27 0.13 0.36 0.13 0.29 0.22 0.02 0.02 0.00 0.00 0.01 0.00 0.01 0.01 0.01 0.02 0.02 0.02 0.01 0.03 0.02 0.03 0.01 0.01 0.01 0.00 0.01 0.01 0.01 0.02 0.02 0.01 0.02 0.02 0.02 0.03 0.05 0.02 0.03 0.03 0.04 0.02 0.03 0.04 0.04 0.01 0.05 0.02 0.02 0.01 0.00 0.02 0.02 0.02 0.01 0.03 0.04 0.10 0.12 0.04 0.13 0.09 0.05 0.16 0.28 0.24 0.29 0.27 0.13 0.14 0.15 0.19 0.16 0.07 0.19 0.13 0.08 0.06 0.28 0.04
0.00 0.00 0.00 0.00 0.00 0.00 0.00 0.00 0.00 0.00 0.00 0.02 0.08 0.16 0.18 0.29 0.03 0.64 0.09 0.12 0.04 0.07 0.10 0.04 0.03 0.00 0.01 0.00 0.01 0.00 0.00 0.01 0.02 0.01 0.02 0.03 0.01 0.02 0.01 0.00 0.00 0.00 0.01 0.01 0.01 0.02 0.01 0.01 0.01 0.02 0.02 0.03 0.04 0.04 0.01 0.03 0.01 0.02 0.01 0.02 0.03 0.07 0.03 0.04 0.02 0.01 0.00 0.01 0.00 0.00 0.01 0.03 0.07 0.08 0.13 0.05 0.04 0.04 0.06 0.06 0.15 0.22 0.27 0.36 0.19 0.15 0.10 0.15 0.12 0.06 0.07 0.15 0.14 0.06 0.25 0.05 0.02
0.00 0.00 0.00 0.00 0.00 0.00 0.00 0.00 0.00 0.00 0.02 0.00 0.04 0.19 0.03 0.15 0.10 0.47 0.08 0.09 0.02 0.11 0.07 0.03 0.02 0.01 0.00 0.00 0.01 0.00 0.01 0.00 0.00 0.01 0.01 0.02 0.00 0.00 0.01 0.01 0.00 0.00 0.01 0.01 0.01 0.01 0.01 0.01 0.00 0.01 0.02 0.02 0.01 0.01 0.01 0.03 0.02 0.01 0.01 0.02 0.02 0.03 0.01 0.01 0.00 0.00 0.02 0.01 0.02 0.06 0.03 0.04 0.04 0.07 0.09 0.13 0.12 0.06 0.15 0.10 0.22 0.17 0.22 0.09 0.10 0.14 0.16 0.17 0.14 0.21 0.08 0.03 0.14 0.16 0.18 0.04 0.01
0.00 0.00 0.00 0.00 0.00 0.00 0.00 0.00 0.00 0.00 0.00 0.01 0.03 0.00 0.05 0.18 0.36 0.08 0.05 0.17 0.05 0.07 0.09 0.05 0.04 0.02 0.01 0.00 0.00 0.01 0.01 0.01 0.01 0.00 0.00 0.00 0.00 0.00 0.00 0.00 0.00 0.00 0.00 0.00 0.00 0.00 0.01 0.01 0.01 0.01 0.01 0.01 0.01 0.01 0.02 0.01 0.05 0.01 0.03 0.01 0.01 0.02 0.01 0.01 0.01 0.00 0.00 0.00 0.03 0.00 0.04 0.06 0.06 0.04 0.03 0.05 0.03 0.10 0.11 0.12 0.09 0.07 0.15 0.24 0.06 0.09 0.11 0.11 0.14 0.22 0.31 0.09 0.12 0.10 0.06 0.02 0.00
0.00 0.00 0.00 0.00 0.00 0.00 0.00 0.00 0.00 0.00 0.00 0.00 0.00 0.31 0.13 0.19 0.05 0.06 0.07 0.02 0.05 0.06 0.04 0.07 0.03 0.02 0.01 0.00 0.00 0.00 0.00 0.02 0.01 0.00 0.00 0.00 0.00 0.00 0.00 0.00 0.00 0.00 0.00 0.01 0.01 0.00 0.01 0.00 0.00 0.01 0.01 0.01 0.01 0.01 0.01 0.02 0.02 0.01 0.02 0.01 0.01 0.01 0.00 0.03 0.00 0.00 0.01 0.00 0.01 0.06 0.04 0.05 0.05 0.03 0.02 0.06 0.07 0.07 0.06 0.13 0.08 0.08 0.08 0.08 0.07 0.09 0.25 0.16 0.16 0.10 0.09 0.09 0.09 0.07 0.03 0.03 0.04
0.00 0.00 0.00 0.00 0.00 0.00 0.00 0.00 0.00 0.00 0.00 0.00 0.00 0.12 0.37 0.04 0.04 0.03 0.04 0.03 0.06 0.08 0.11 0.05 0.07 0.05 0.02 0.01 0.01 0.01 0.00 0.01 0.01 0.00 0.00 0.00 0.00 0.00 0.00 0.00 0.00 0.00 0.00 0.00 0.00 0.00 0.01 0.00 0.00 0.01 0.01 0.01 0.02 0.01 0.01 0.01 0.00 0.01 0.00 0.00 0.00 0.00 0.00 0.01 0.00 0.01 0.01 0.01 0.01 0.05 0.04 0.04 0.02 0.05 0.04 0.05 0.08 0.07 0.10 0.05 0.07 0.08 0.05 0.09 0.11 0.07 0.18 0.13 0.14 0.17 0.04 0.07 0.05 0.04 0.04 0.03 0.01
0.00 0.00 0.00 0.00 0.00 0.00 0.00 0.00 0.00 0.00 0.00 0.00 0.00 0.07 0.23 0.18 0.02 0.04 0.03 0.04 0.02 0.20 0.34 0.09 0.07 0.08 0.07 0.03 0.01 0.02 0.01 0.01 0.01 0.00 0.00 0.00 0.00 0.01 0.00 0.00 0.00 0.00 0.00 0.00 0.00 0.00 0.01 0.00 0.00 0.00 0.00 0.02 0.01 0.00 0.00 0.00 0.00 0.00 0.00 0.00 0.00 0.00 0.00 0.00 0.00 0.00 0.00 0.00 0.00 0.02 0.02 0.05 0.04 0.05 0.06 0.06 0.08 0.09 0.11 0.27 0.12 0.20 0.08 0.10 0.21 0.16 0.09 0.19 0.25 0.20 0.10 0.15 0.04 0.03 0.02 0.03 0.01
0.00 0.00 0.00 0.00 0.00 0.00 0.00 0.00 0.00 0.00 0.00 0.00 0.00 0.08 0.05 0.22 0.02 0.03 0.03 0.06 0.06 0.08 0.22 0.07 0.05 0.05 0.03 0.02 0.03 0.02 0.01 0.00 0.00 0.00 0.00 0.00 0.01 0.00 0.00 0.00 0.00 0.00 0.00 0.00 0.00 0.00 0.00 0.00 0.00 0.00 0.01 0.01 0.01 0.01 0.00 0.00 0.00 0.00 0.00 0.00 0.00 0.01 0.01 0.00 0.05 0.01 0.00 0.01 0.01 0.02 0.05 0.05 0.05 0.04 0.05 0.05 0.08 0.09 0.08 0.08 0.13 0.15 0.12 0.14 0.08 0.18 0.23 0.09 0.34 0.11 0.08 0.06 0.03 0.03 0.02 0.03 0.02
0.00 0.00 0.00 0.00 0.00 0.00 0.00 0.00 0.00 0.00 0.00 0.00 0.00 0.00 0.13 0.31 0.04 0.07 0.06 0.03 0.05 0.12 0.14 0.07 0.17 0.09 0.02 0.05 0.02 0.05 0.02 0.01 0.02 0.00 0.00 0.00 0.00 0.00 0.00 0.00 0.00 0.00 0.00 0.00 0.00 0.00 0.00 0.00 0.00 0.00 0.01 0.01 0.00 0.00 0.00 0.00 0.00 0.00 0.00 0.01 0.00 0.01 0.01 0.00 0.00 0.01 0.01 0.01 0.02 0.02 0.02 0.03 0.03 0.05 0.06 0.10 0.09 0.07 0.11 0.07 0.24 0.25 0.20 0.15 0.17 0.10 0.39 0.16 0.07 0.09 0.18 0.09 0.04 0.05 0.03 0.03 0.02
0.00 0.00 0.00 0.00 0.00 0.00 0.00 0.00 0.00 0.00 0.00 0.00 0.00 0.00 0.02 0.19 0.09 0.09 0.02 0.06 0.07 0.08 0.22 0.10 0.07 0.27 0.33 0.06 0.00 0.02 0.03 0.00 0.03 0.01 0.01 0.00 0.00 0.00 0.00 0.00 0.00 0.00 0.00 0.00 0.00 0.00 0.00 0.00 0.00 0.00 0.00 0.01 0.01 0.00 0.00 0.00 0.00 0.00 0.00 0.00 0.01 0.00 0.01 0.00 0.00 0.01 0.01 0.00 0.01 0.02 0.02 0.02 0.03 0.07 0.10 0.07 0.04 0.08 0.05 0.10 0.07 0.11 0.07 0.19 0.13 0.18 0.24 0.22 0.17 0.06 0.07 0.09 0.02 0.03 0.03 0.01 0.00
0.00 0.00 0.00 0.00 0.00 0.00 0.00 0.00 0.00 0.00 0.00 0.00 0.00 0.00 0.00 0.04 0.10 0.03 0.07 0.07 0.10 0.19 0.40 0.08 0.13 0.06 0.17 0.18 0.09 0.03 0.00 0.03 0.01 0.02 0.00 0.00 0.00 0.00 0.00 0.00 0.00 0.00 0.00 0.00 0.00 0.00 0.00 0.00 0.00 0.00 0.00 0.00 0.01 0.00 0.01 0.02 0.03 0.00 0.00 0.00 0.02 0.00 0.00 0.01 0.00 0.00 0.00 0.00 0.01 0.01 0.00 0.01 0.02 0.05 0.05 0.03 0.09 0.13 0.29 0.05 0.22 0.16 0.13 0.13 0.38 0.16 0.25 0.27 0.14 0.22 0.06 0.11 0.09 0.04 0.02 0.01 0.00
0.00 0.00 0.00 0.00 0.00 0.00 0.00 0.00 0.00 0.00 0.00 0.00 0.00 0.00 0.00 0.06 0.05 0.10 0.04 0.01 0.09 0.24 0.18 0.11 0.07 0.10 0.08 0.13 0.42 0.07 0.07 0.04 0.01 0.02 0.01 0.00 0.00 0.00 0.00 0.00 0.00 0.00 0.00 0.00 0.00 0.00 0.00 0.00 0.00 0.00 0.00 0.00 0.00 0.00 0.04 0.01 0.01 0.00 0.00 0.01 0.02 0.02 0.02 0.01 0.01 0.00 0.00 0.00 0.00 0.00 0.00 0.01 0.01 0.01 0.02 0.04 0.02 0.05 0.10 0.14 0.14 0.17 0.13 0.21 0.21 0.27 0.13 0.25 0.09 0.15 0.08 0.04 0.07 0.03 0.02 0.00 0.00
0.00 0.00 0.00 0.00 0.00 0.00 0.00 0.00 0.00 0.00 0.00 0.00 0.00 0.00 0.00 0.07 0.09 0.05 0.05 0.03 0.03 0.12 0.19 0.32 0.34 0.14 0.11 0.29 0.29 0.07 0.10 0.05 0.02 0.02 0.01 0.01 0.00 0.01 0.00 0.00 0.00 0.00 0.00 0.00 0.00 0.00 0.00 0.00 0.00 0.00 0.00 0.00 0.00 0.00 0.01 0.02 0.00 0.00 0.00 0.00 0.00 0.03 0.02 0.01 0.01 0.01 0.03 0.02 0.01 0.00 0.01 0.00 0.00 0.00 0.02 0.03 0.04 0.03 0.09 0.10 0.15 0.22 0.15 0.17 0.14 0.25 0.17 0.17 0.04 0.09 0.06 0.08 0.03 0.06 0.02 0.01 0.00
0.00 0.00 0.00 0.00 0.00 0.00 0.00 0.00 0.00 0.00 0.00 0.00 0.00 0.00 0.00 0.00 0.04 0.06 0.03 0.06 0.04 0.02 0.06 0.08 0.37 0.42 0.19 0.25 0.41 0.39 0.08 0.05 0.03 0.02 0.03 0.01 0.00 0.00 0.00 0.00 0.00 0.00 0.00 0.00 0.00 0.00 0.00 0.00 0.00 0.00 0.00 0.00 0.00 0.00 0.00 0.00 0.00 0.00 0.00 0.00 0.00 0.02 0.00 0.01 0.02 0.01 0.01 0.02 0.02 0.00 0.01 0.00 0.01 0.00 0.01 0.02 0.01 0.06 0.08 0.15 0.14 0.22 0.07 0.15 0.11 0.07 0.07 0.10 0.16 0.09 0.03 0.04 0.03 0.02 0.02 0.00 0.00
0.00 0.00 0.00 0.00 0.00 0.00 0.00 0.00 0.00 0.00 0.00 0.00 0.00 0.00 0.01 0.00 0.00 0.03 0.02 0.07 0.12 0.02 0.02 0.02 0.27 0.40 0.08 0.05 0.22 0.35 0.38 0.05 0.04 0.01 0.01 0.00 0.02 0.01 0.00 0.00 0.00 0.00 0.00 0.00 0.00 0.00 0.00 0.00 0.00 0.00 0.00 0.00 0.00 0.00 0.00 0.00 0.00 0.00 0.00 0.00 0.00 0.01 0.03 0.01 0.01 0.01 0.01 0.06 0.02 0.01 0.01 0.02 0.02 0.01 0.06 0.06 0.13 0.10 0.06 0.09 0.08 0.11 0.05 0.11 0.11 0.18 0.08 0.08 0.09 0.13 0.05 0.03 0.02 0.08 0.05 0.01 0.00
0.00 0.00 0.00 0.00 0.00 0.00 0.00 0.00 0.00 0.00 0.00 0.00 0.00 0.00 0.00 0.00 0.00 0.01 0.03 0.00 0.09 0.07 0.03 0.02 0.05 0.22 0.30 0.13 0.09 0.22 0.48 0.35 0.09 0.04 0.00 0.01 0.00 0.01 0.00 0.00 0.00 0.00 0.00 0.00 0.00 0.00 0.00 0.00 0.00 0.00 0.00 0.00 0.00 0.00 0.00 0.00 0.03 0.02 0.01 0.00 0.01 0.00 0.00 0.01 0.01 0.02 0.02 0.03 0.01 0.02 0.02 0.04 0.02 0.02 0.01 0.05 0.05 0.04 0.04 0.05 0.05 0.05 0.07 0.04 0.04 0.07 0.12 0.10 0.08 0.08 0.03 0.07 0.02 0.06 0.05 0.02 0.01
0.00 0.00 0.00 0.00 0.00 0.00 0.00 0.00 0.00 0.00 0.00 0.00 0.00 0.02 0.00 0.00 0.00 0.01 0.00 0.00 0.01 0.01 0.02 0.06 0.06 0.02 0.18 0.06 0.07 0.10 0.28 0.15 0.12 0.10 0.02 0.00 0.01 0.04 0.00 0.00 0.00 0.00 0.00 0.00 0.00 0.00 0.00 0.00 0.00 0.00 0.00 0.00 0.00 0.00 0.00 0.00 0.02 0.00 0.01 0.04 0.06 0.01 0.04 0.01 0.01 0.00 0.01 0.01 0.03 0.02 0.03 0.07 0.03 0.01 0.01 0.01 0.00 0.02 0.04 0.02 0.01 0.04 0.10 0.05 0.05 0.05 0.05 0.05 0.04 0.05 0.04 0.02 0.01 0.01 0.02 0.05 0.01
0.00 0.00 0.00 0.00 0.00 0.00 0.00 0.00 0.00 0.00 0.01 0.00 0.00 0.00 0.01 0.00 0.00 0.00 0.01 0.01 0.01 0.03 0.01 0.02 0.08 0.05 0.14 0.06 0.08 0.07 0.08 0.12 0.14 0.08 0.04 0.04 0.01 0.01 0.00 0.00 0.00 0.00 0.00 0.00 0.01 0.00 0.00 0.00 0.00 0.00 0.00 0.00 0.00 0.00 0.00 0.00 0.00 0.00 0.01 0.02 0.01 0.01 0.01 0.00 0.01 0.01 0.01 0.00 0.01 0.00 0.05 0.06 0.04 0.03 0.06 0.01 0.00 0.02 0.04 0.03 0.03 0.03 0.01 0.05 0.03 0.01 0.05 0.07 0.08 0.02 0.01 0.01 0.02 0.03 0.01 0.03 0.01
0.00 0.00 0.00 0.00 0.00 0.00 0.00 0.00 0.00 0.00 0.00 0.00 0.00 0.00 0.04 0.02 0.00 0.00 0.00 0.00 0.00 0.01 0.01 0.03 0.04 0.02 0.09 0.11 0.06 0.05 0.05 0.03 0.04 0.02 0.05 0.01 0.02 0.01 0.00 0.00 0.01 0.00 0.00 0.00 0.01 0.00 0.00 0.00 0.00 0.00 0.00 0.00 0.00 0.00 0.00 0.00 0.00 0.01 0.03 0.01 0.00 0.00 0.00 0.00 0.00 0.00 0.00 0.00 0.02 0.01 0.01 0.03 0.01 0.02 0.00 0.01 0.07 0.01 0.01 0.03 0.05 0.02 0.01 0.01 0.02 0.03 0.01 0.04 0.02 0.01 0.01 0.04 0.01 0.02 0.02 0.02 0.07
0.00 0.00 0.00 0.00 0.00 0.00 0.00 0.00 0.00 0.00 0.00 0.02 0.00 0.00 0.03 0.00 0.00 0.00 0.00 0.02 0.00 0.01 0.01 0.01 0.03 0.01 0.03 0.08 0.08 0.08 0.09 0.06 0.02 0.03 0.06 0.01 0.02 0.00 0.01 0.00 0.02 0.00 0.00 0.00 0.00 0.00 0.00 0.00 0.00 0.00 0.00 0.00 0.00 0.00 0.00 0.00 0.00 0.01 0.00 0.01 0.00 0.00 0.00 0.00 0.00 0.00 0.00 0.00 0.00 0.01 0.00 0.01 0.00 0.01 0.00 0.01 0.01 0.00 0.00 0.02 0.03 0.01 0.01 0.01 0.01 0.02 0.03 0.01 0.02 0.02 0.02 0.02 0.01 0.02 0.01 0.01 0.01
0.00 0.00 0.00 0.00 0.00 0.00 0.00 0.00 0.00 0.00 0.00 0.00 0.00 0.00 0.01 0.00 0.00 0.00 0.00 0.00 0.01 0.00 0.00 0.01 0.03 0.01 0.03 0.02 0.07 0.06 0.08 0.03 0.06 0.09 0.02 0.04 0.03 0.00 0.01 0.02 0.00 0.00 0.00 0.00 0.00 0.00 0.00 0.00 0.00 0.00 0.00 0.00 0.00 0.00 0.00 0.00 0.00 0.00 0.01 0.00 0.00 0.00 0.00 0.00 0.00 0.00 0.00 0.00 0.00 0.00 0.00 0.00 0.00 0.01 0.00 0.00 0.00 0.00 0.00 0.00 0.02 0.06 0.01 0.01 0.00 0.01 0.02 0.02 0.01 0.01 0.01 0.01 0.02 0.01 0.01 0.01 0.00
0.00 0.00 0.00 0.00 0.00 0.00 0.00 0.00 0.00 0.00 0.00 0.00 0.00 0.00 0.00 0.02 0.00 0.00 0.00 0.00 0.00 0.01 0.01 0.00 0.00 0.00 0.02 0.06 0.05 0.02 0.06 0.06 0.03 0.02 0.05 0.04 0.04 0.04 0.01 0.01 0.01 0.00 0.00 0.00 0.00 0.00 0.00 0.00 0.00 0.00 0.00 0.00 0.00 0.00 0.00 0.00 0.00 0.00 0.00 0.00 0.00 0.00 0.00 0.00 0.00 0.00 0.00 0.00 0.00 0.00 0.00 0.00 0.00 0.01 0.00 0.00 0.00 0.00 0.00 0.00 0.00 0.01 0.04 0.01 0.00 0.00 0.00 0.03 0.05 0.07 0.00 0.01 0.01 0.02 0.02 0.01 0.00
0.00 0.00 0.00 0.00 0.00 0.00 0.00 0.00 0.00 0.00 0.00 0.00 0.00 0.00 0.00 0.01 0.00 0.00 0.00 0.00 0.00 0.00 0.00 0.00 0.00 0.00 0.00 0.02 0.01 0.02 0.01 0.04 0.04 0.07 0.05 0.05 0.12 0.16 0.05 0.02 0.03 0.02 0.01 0.00 0.00 0.00 0.00 0.00 0.00 0.00 0.00 0.00 0.00 0.00 0.00 0.00 0.00 0.00 0.00 0.00 0.00 0.00 0.00 0.00 0.00 0.00 0.00 0.00 0.00 0.00 0.01 0.00 0.00 0.00 0.00 0.00 0.00 0.02 0.00 0.00 0.00 0.00 0.00 0.00 0.01 0.00 0.02 0.01 0.02 0.01 0.00 0.01 0.01 0.01 0.02 0.02 0.02
0.00 0.00 0.00 0.00 0.00 0.00 0.00 0.00 0.00 0.00 0.00 0.00 0.00 0.00 0.00 0.00 0.00 0.00 0.00 0.00 0.00 0.00 0.00 0.00 0.00 0.00 0.01 0.01 0.01 0.00 0.01 0.02 0.05 0.06 0.03 0.04 0.08 0.02 0.03 0.01 0.00 0.00 0.00 0.00 0.01 0.00 0.00 0.00 0.00 0.00 0.00 0.00 0.00 0.00 0.00 0.00 0.00 0.00 0.00 0.00 0.00 0.00 0.00 0.00 0.00 0.00 0.00 0.00 0.00 0.00 0.00 0.00 0.00 0.00 0.00 0.00 0.00 0.00 0.00 0.00 0.00 0.00 0.00 0.00 0.01 0.01 0.00 0.01 0.02 0.01 0.00 0.01 0.00 0.01 0.01 0.01 0.01
0.00 0.00 0.00 0.00 0.00 0.00 0.00 0.00 0.00 0.00 0.00 0.00 0.00 0.00 0.00 0.00 0.00 0.00 0.00 0.00 0.00 0.00 0.00 0.00 0.00 0.00 0.00 0.00 0.00 0.00 0.00 0.00 0.02 0.07 0.02 0.10 0.05 0.08 0.02 0.02 0.00 0.00 0.01 0.00 0.00 0.00 0.00 0.00 0.00 0.00 0.00 0.00 0.00 0.00 0.00 0.00 0.00 0.00 0.00 0.00 0.00 0.00 0.00 0.00 0.00 0.00 0.00 0.00 0.00 0.00 0.00 0.00 0.00 0.00 0.00 0.00 0.00 0.00 0.00 0.00 0.00 0.00 0.00 0.00 0.00 0.00 0.01 0.01 0.01 0.01 0.01 0.01 0.00 0.00 0.00 0.01 0.01
0.00 0.00 0.00 0.00 0.00 0.00 0.00 0.00 0.00 0.00 0.01 0.00 0.00 0.00 0.00 0.02 0.00 0.00 0.00 0.00 0.00 0.00 0.00 0.00 0.00 0.00 0.00 0.00 0.00 0.01 0.00 0.00 0.02 0.03 0.02 0.03 0.04 0.00 0.05 0.02 0.02 0.01 0.00 0.00 0.00 0.00 0.00 0.00 0.00 0.00 0.00 0.00 0.00 0.00 0.00 0.00 0.00 0.00 0.00 0.00 0.00 0.00 0.00 0.00 0.00 0.00 0.00 0.00 0.00 0.00 0.00 0.00 0.00 0.00 0.00 0.02 0.00 0.00 0.00 0.00 0.00 0.00 0.00 0.00 0.00 0.00 0.01 0.02 0.02 0.01 0.01 0.00 0.00 0.01 0.00 0.00 0.01
0.00 0.00 0.00 0.00 0.00 0.00 0.00 0.00 0.00 0.00 0.00 0.00 0.00 0.00 0.00 0.00 0.00 0.00 0.00 0.00 0.00 0.00 0.00 0.00 0.00 0.00 0.00 0.00 0.00 0.01 0.00 0.00 0.02 0.01 0.02 0.05 0.03 0.10 0.03 0.04 0.02 0.00 0.01 0.02 0.00 0.00 0.00 0.00 0.00 0.00 0.00 0.00 0.00 0.00 0.00 0.00 0.00 0.00 0.00 0.00 0.00 0.00 0.00 0.00 0.01 0.00 0.00 0.00 0.00 0.00 0.00 0.00 0.00 0.01 0.00 0.01 0.00 0.00 0.00 0.00 0.00 0.00 0.00 0.00 0.00 0.00 0.00 0.01 0.01 0.01 0.01 0.01 0.00 0.00 0.00 0.01 0.01
0.00 0.00 0.00 0.00 0.00 0.00 0.00 0.00 0.00 0.00 0.00 0.00 0.00 0.00 0.00 0.00 0.00 0.00 0.00 0.00 0.00 0.00 0.00 0.00 0.00 0.00 0.00 0.00 0.00 0.00 0.00 0.00 0.00 0.00 0.00 0.01 0.01 0.02 0.03 0.01 0.04 0.02 0.01 0.02 0.00 0.00 0.00 0.00 0.00 0.00 0.00 0.00 0.00 0.00 0.00 0.00 0.00 0.00 0.00 0.00 0.00 0.00 0.00 0.00 0.00 0.00 0.00 0.01 0.01 0.00 0.01 0.00 0.00 0.00 0.00 0.00 0.00 0.00 0.00 0.00 0.00 0.01 0.00 0.00 0.00 0.00 0.01 0.00 0.01 0.01 0.01 0.00 0.00 0.01 0.00 0.00 0.01
0.00 0.00 0.00 0.00 0.00 0.00 0.00 0.00 0.00 0.00 0.00 0.00 0.00 0.00 0.00 0.00 0.01 0.00 0.00 0.00 0.00 0.00 0.00 0.00 0.00 0.00 0.00 0.00 0.00 0.00 0.00 0.00 0.00 0.00 0.00 0.00 0.00 0.00 0.00 0.01 0.03 0.00 0.04 0.01 0.00 0.00 0.00 0.00 0.00 0.00 0.00 0.00 0.00 0.00 0.00 0.00 0.00 0.00 0.00 0.00 0.00 0.00 0.00 0.00 0.00 0.00 0.00 0.01 0.01 0.00 0.01 0.00 0.00 0.00 0.00 0.01 0.00 0.00 0.00 0.00 0.00 0.00 0.00 0.00 0.00 0.01 0.01 0.01 0.01 0.01 0.01 0.01 0.01 0.01 0.00 0.00 0.00
0.00 0.00 0.00 0.00 0.00 0.00 0.00 0.00 0.00 0.00 0.00 0.00 0.00 0.00 0.00 0.00 0.00 0.00 0.00 0.00 0.00 0.00 0.00 0.00 0.00 0.00 0.00 0.00 0.00 0.00 0.00 0.00 0.00 0.00 0.02 0.02 0.03 0.03 0.00 0.00 0.00 0.03 0.02 0.00 0.00 0.01 0.00 0.00 0.00 0.00 0.00 0.00 0.00 0.00 0.00 0.00 0.00 0.00 0.00 0.00 0.00 0.00 0.00 0.00 0.00 0.00 0.00 0.00 0.00 0.00 0.00 0.01 0.00 0.00 0.00 0.00 0.00 0.00 0.00 0.00 0.00 0.00 0.00 0.00 0.00 0.00 0.00 0.01 0.01 0.01 0.00 0.01 0.00 0.00 0.00 0.00 0.00
0.00 0.00 0.00 0.00 0.00 0.00 0.00 0.00 0.00 0.00 0.00 0.00 0.00 0.00 0.00 0.00 0.00 0.00 0.00 0.00 0.00 0.00 0.00 0.00 0.00 0.00 0.00 0.00 0.00 0.00 0.00 0.00 0.01 0.00 0.01 0.02 0.03 0.00 0.04 0.06 0.00 0.02 0.01 0.07 0.04 0.02 0.00 0.01 0.00 0.00 0.00 0.00 0.00 0.00 0.00 0.00 0.00 0.00 0.00 0.00 0.00 0.00 0.00 0.00 0.00 0.00 0.00 0.00 0.00 0.05 0.00 0.01 0.00 0.00 0.00 0.00 0.00 0.00 0.00 0.00 0.00 0.00 0.00 0.00 0.00 0.00 0.01 0.01 0.01 0.00 0.00 0.00 0.00 0.00 0.00 0.00 0.00
0.00 0.00 0.00 0.00 0.00 0.00 0.00 0.00 0.00 0.00 0.00 0.00 0.00 0.00 0.00 0.02 0.05 0.00 0.00 0.00 0.00 0.00 0.00 0.00 0.00 0.00 0.00 0.00 0.00 0.00 0.00 0.00 0.00 0.00 0.00 0.02 0.01 0.01 0.04 0.03 0.01 0.07 0.07 0.08 0.12 0.05 0.01 0.01 0.00 0.00 0.00 0.00 0.00 0.00 0.00 0.00 0.00 0.00 0.00 0.00 0.00 0.00 0.00 0.00 0.00 0.00 0.03 0.00 0.00 0.03 0.03 0.05 0.02 0.00 0.00 0.00 0.00 0.00 0.00 0.00 0.00 0.00 0.00 0.00 0.00 0.00 0.00 0.00 0.00 0.00 0.00 0.00 0.00 0.00 0.00 0.00 0.00
0.00 0.00 0.00 0.00 0.00 0.00 0.00 0.00 0.00 0.00 0.00 0.00 0.00 0.00 0.00 0.00 0.00 0.00 0.00 0.00 0.00 0.00 0.00 0.00 0.00 0.00 0.00 0.00 0.00 0.00 0.00 0.00 0.00 0.02 0.01 0.00 0.01 0.04 0.04 0.01 0.04 0.05 0.06 0.13 0.11 0.10 0.06 0.02 0.02 0.00 0.00 0.00 0.00 0.00 0.00 0.00 0.00 0.00 0.00 0.00 0.00 0.00 0.00 0.00 0.00 0.00 0.00 0.00 0.00 0.04 0.01 0.00 0.00 0.01 0.00 0.00 0.00 0.00 0.01 0.00 0.00 0.00 0.01 0.00 0.00 0.00 0.00 0.00 0.00 0.00 0.00 0.00 0.00 0.00 0.00 0.00 0.00